History Data
| Date (GMT-7:00) | CPM | ACPM | uSv/h | Latitude | Longitude | Altitude | CO | CO2 | TVOC | HCHO | Air Pressure | Temperature | Humidity | Type |
|---|---|---|---|---|---|---|---|---|---|---|---|---|---|---|
| 2026-07-18 21:38:46 | 18 | 17.00 | 0.090000 | 41.649648 | 41.62752893 | 0 | 0 | 0 | 0 | 0 | 0 | 0 | 0 | STD5.60 |
| 2026-07-18 21:33:44 | 16 | 18.30 | 0.080000 | 41.649648 | 41.62752893 | 0 | 0 | 0 | 0 | 0 | 0 | 0 | 0 | STD5.60 |
| 2026-07-18 21:28:39 | 18 | 17.80 | 0.090000 | 41.649648 | 41.62752893 | 0 | 0 | 0 | 0 | 0 | 0 | 0 | 0 | STD5.60 |
| 2026-07-18 21:23:37 | 18 | 16.90 | 0.090000 | 41.649648 | 41.62752893 | 0 | 0 | 0 | 0 | 0 | 0 | 0 | 0 | STD5.60 |
| 2026-07-18 21:18:35 | 15 | 17.80 | 0.075000 | 41.649648 | 41.62752893 | 0 | 0 | 0 | 0 | 0 | 0 | 0 | 0 | STD5.60 |
| 2026-07-18 21:13:33 | 8 | 17.70 | 0.040000 | 41.649648 | 41.62752893 | 0 | 0 | 0 | 0 | 0 | 0 | 0 | 0 | STD5.60 |
| 2026-07-18 21:08:31 | 16 | 16.90 | 0.080000 | 41.649648 | 41.62752893 | 0 | 0 | 0 | 0 | 0 | 0 | 0 | 0 | STD5.60 |
| 2026-07-18 21:03:29 | 18 | 15.50 | 0.090000 | 41.649648 | 41.62752893 | 0 | 0 | 0 | 0 | 0 | 0 | 0 | 0 | STD5.60 |
| 2026-07-18 20:58:27 | 13 | 16.50 | 0.065000 | 41.649648 | 41.62752893 | 0 | 0 | 0 | 0 | 0 | 0 | 0 | 0 | STD5.60 |
| 2026-07-18 20:53:25 | 19 | 17.50 | 0.095000 | 41.649648 | 41.62752893 | 0 | 0 | 0 | 0 | 0 | 0 | 0 | 0 | STD5.60 |
| 2026-07-18 20:48:23 | 11 | 17.90 | 0.055000 | 41.649648 | 41.62752893 | 0 | 0 | 0 | 0 | 0 | 0 | 0 | 0 | STD5.60 |
| 2026-07-18 20:43:21 | 23 | 17.80 | 0.115000 | 41.649648 | 41.62752893 | 0 | 0 | 0 | 0 | 0 | 0 | 0 | 0 | STD5.60 |
| 2026-07-18 20:38:19 | 11 | 18.90 | 0.055000 | 41.649648 | 41.62752893 | 0 | 0 | 0 | 0 | 0 | 0 | 0 | 0 | STD5.60 |
| 2026-07-18 20:33:18 | 22 | 20.30 | 0.110000 | 41.649648 | 41.62752893 | 0 | 0 | 0 | 0 | 0 | 0 | 0 | 0 | STD5.60 |
| 2026-07-18 20:28:13 | 14 | 20.10 | 0.070000 | 41.649648 | 41.62752893 | 0 | 0 | 0 | 0 | 0 | 0 | 0 | 0 | STD5.60 |
| 2026-07-18 20:23:11 | 23 | 17.90 | 0.115000 | 41.649648 | 41.62752893 | 0 | 0 | 0 | 0 | 0 | 0 | 0 | 0 | STD5.60 |
| 2026-07-18 20:18:10 | 19 | 16.90 | 0.095000 | 41.649648 | 41.62752893 | 0 | 0 | 0 | 0 | 0 | 0 | 0 | 0 | STD5.60 |
| 2026-07-18 20:13:08 | 19 | 18.90 | 0.095000 | 41.649648 | 41.62752893 | 0 | 0 | 0 | 0 | 0 | 0 | 0 | 0 | STD5.60 |
| 2026-07-18 20:08:06 | 14 | 17.20 | 0.070000 | 41.649648 | 41.62752893 | 0 | 0 | 0 | 0 | 0 | 0 | 0 | 0 | STD5.60 |
| 2026-07-18 20:03:04 | 16 | 16.20 | 0.080000 | 41.649648 | 41.62752893 | 0 | 0 | 0 | 0 | 0 | 0 | 0 | 0 | STD5.60 |
| 2026-07-18 19:58:02 | 18 | 18.80 | 0.090000 | 41.649648 | 41.62752893 | 0 | 0 | 0 | 0 | 0 | 0 | 0 | 0 | STD5.60 |
| 2026-07-18 19:53:00 | 22 | 18.30 | 0.110000 | 41.649648 | 41.62752893 | 0 | 0 | 0 | 0 | 0 | 0 | 0 | 0 | STD5.60 |
| 2026-07-18 19:48:01 | 23 | 15.60 | 0.115000 | 41.649648 | 41.62752893 | 0 | 0 | 0 | 0 | 0 | 0 | 0 | 0 | STD5.60 |
| 2026-07-18 19:42:56 | 14 | 15.90 | 0.070000 | 41.649648 | 41.62752893 | 0 | 0 | 0 | 0 | 0 | 0 | 0 | 0 | STD5.60 |
| 2026-07-18 19:37:54 | 14 | 17.70 | 0.070000 | 41.649648 | 41.62752893 | 0 | 0 | 0 | 0 | 0 | 0 | 0 | 0 | STD5.60 |
| 2026-07-18 19:32:53 | 15 | 18.90 | 0.075000 | 41.649648 | 41.62752893 | 0 | 0 | 0 | 0 | 0 | 0 | 0 | 0 | STD5.60 |
| 2026-07-18 19:27:49 | 14 | 19.40 | 0.070000 | 41.649648 | 41.62752893 | 0 | 0 | 0 | 0 | 0 | 0 | 0 | 0 | STD5.60 |
| 2026-07-18 19:22:47 | 26 | 19.60 | 0.130000 | 41.649648 | 41.62752893 | 0 | 0 | 0 | 0 | 0 | 0 | 0 | 0 | STD5.60 |
| 2026-07-18 19:17:45 | 20 | 18.00 | 0.100000 | 41.649648 | 41.62752893 | 0 | 0 | 0 | 0 | 0 | 0 | 0 | 0 | STD5.60 |
| 2026-07-18 19:12:43 | 11 | 17.70 | 0.055000 | 41.649648 | 41.62752893 | 0 | 0 | 0 | 0 | 0 | 0 | 0 | 0 | STD5.60 |
| 2026-07-18 19:07:41 | 23 | 18.90 | 0.115000 | 41.649648 | 41.62752893 | 0 | 0 | 0 | 0 | 0 | 0 | 0 | 0 | STD5.60 |
| 2026-07-18 19:02:39 | 15 | 18.20 | 0.075000 | 41.649648 | 41.62752893 | 0 | 0 | 0 | 0 | 0 | 0 | 0 | 0 | STD5.60 |
| 2026-07-18 18:57:37 | 20 | 17.10 | 0.100000 | 41.649648 | 41.62752893 | 0 | 0 | 0 | 0 | 0 | 0 | 0 | 0 | STD5.60 |
| 2026-07-18 18:52:35 | 16 | 16.40 | 0.080000 | 41.649648 | 41.62752893 | 0 | 0 | 0 | 0 | 0 | 0 | 0 | 0 | STD5.60 |
| 2026-07-18 18:47:33 | 15 | 17.10 | 0.075000 | 41.649648 | 41.62752893 | 0 | 0 | 0 | 0 | 0 | 0 | 0 | 0 | STD5.60 |
| 2026-07-18 18:42:31 | 17 | 16.70 | 0.085000 | 41.649648 | 41.62752893 | 0 | 0 | 0 | 0 | 0 | 0 | 0 | 0 | STD5.60 |
| 2026-07-18 18:37:30 | 18 | 17.00 | 0.090000 | 41.649648 | 41.62752893 | 0 | 0 | 0 | 0 | 0 | 0 | 0 | 0 | STD5.60 |
| 2026-07-18 18:32:25 | 18 | 18.60 | 0.090000 | 41.649648 | 41.62752893 | 0 | 0 | 0 | 0 | 0 | 0 | 0 | 0 | STD5.60 |
| 2026-07-18 18:27:23 | 22 | 16.60 | 0.110000 | 41.649648 | 41.62752893 | 0 | 0 | 0 | 0 | 0 | 0 | 0 | 0 | STD5.60 |
| 2026-07-18 18:22:21 | 15 | 16.80 | 0.075000 | 41.649648 | 41.62752893 | 0 | 0 | 0 | 0 | 0 | 0 | 0 | 0 | STD5.60 |
| 2026-07-18 18:17:19 | 16 | 17.80 | 0.080000 | 41.649648 | 41.62752893 | 0 | 0 | 0 | 0 | 0 | 0 | 0 | 0 | STD5.60 |
| 2026-07-18 18:12:17 | 16 | 17.00 | 0.080000 | 41.649648 | 41.62752893 | 0 | 0 | 0 | 0 | 0 | 0 | 0 | 0 | STD5.60 |
| 2026-07-18 18:07:15 | 21 | 18.90 | 0.105000 | 41.649648 | 41.62752893 | 0 | 0 | 0 | 0 | 0 | 0 | 0 | 0 | STD5.60 |
| 2026-07-18 18:02:13 | 21 | 19.90 | 0.105000 | 41.649648 | 41.62752893 | 0 | 0 | 0 | 0 | 0 | 0 | 0 | 0 | STD5.60 |
| 2026-07-18 17:57:11 | 19 | 17.30 | 0.095000 | 41.649648 | 41.62752893 | 0 | 0 | 0 | 0 | 0 | 0 | 0 | 0 | STD5.60 |
| 2026-07-18 17:52:09 | 17 | 17.70 | 0.085000 | 41.649648 | 41.62752893 | 0 | 0 | 0 | 0 | 0 | 0 | 0 | 0 | STD5.60 |
| 2026-07-18 17:47:07 | 20 | 20.30 | 0.100000 | 41.649648 | 41.62752893 | 0 | 0 | 0 | 0 | 0 | 0 | 0 | 0 | STD5.60 |
| 2026-07-18 17:42:05 | 14 | 18.80 | 0.070000 | 41.649648 | 41.62752893 | 0 | 0 | 0 | 0 | 0 | 0 | 0 | 0 | STD5.60 |
| 2026-07-18 17:37:03 | 11 | 17.40 | 0.055000 | 41.649648 | 41.62752893 | 0 | 0 | 0 | 0 | 0 | 0 | 0 | 0 | STD5.60 |
| 2026-07-18 17:32:02 | 15 | 17.40 | 0.075000 | 41.649648 | 41.62752893 | 0 | 0 | 0 | 0 | 0 | 0 | 0 | 0 | STD5.60 |
| 2026-07-18 17:26:58 | 14 | 16.80 | 0.070000 | 41.649648 | 41.62752893 | 0 | 0 | 0 | 0 | 0 | 0 | 0 | 0 | STD5.60 |
| 2026-07-18 17:21:56 | 12 | 16.70 | 0.060000 | 41.649648 | 41.62752893 | 0 | 0 | 0 | 0 | 0 | 0 | 0 | 0 | STD5.60 |
| 2026-07-18 17:16:54 | 23 | 17.60 | 0.115000 | 41.649648 | 41.62752893 | 0 | 0 | 0 | 0 | 0 | 0 | 0 | 0 | STD5.60 |
| 2026-07-18 17:11:52 | 15 | 17.60 | 0.075000 | 41.649648 | 41.62752893 | 0 | 0 | 0 | 0 | 0 | 0 | 0 | 0 | STD5.60 |
| 2026-07-18 17:06:50 | 15 | 18.10 | 0.075000 | 41.649648 | 41.62752893 | 0 | 0 | 0 | 0 | 0 | 0 | 0 | 0 | STD5.60 |
| 2026-07-18 17:01:48 | 20 | 17.90 | 0.100000 | 41.649648 | 41.62752893 | 0 | 0 | 0 | 0 | 0 | 0 | 0 | 0 | STD5.60 |
| 2026-07-18 16:56:46 | 17 | 18.30 | 0.085000 | 41.649648 | 41.62752893 | 0 | 0 | 0 | 0 | 0 | 0 | 0 | 0 | STD5.60 |
| 2026-07-18 16:51:44 | 24 | 18.90 | 0.120000 | 41.649648 | 41.62752893 | 0 | 0 | 0 | 0 | 0 | 0 | 0 | 0 | STD5.60 |
| 2026-07-18 16:46:43 | 17 | 17.50 | 0.085000 | 41.649648 | 41.62752893 | 0 | 0 | 0 | 0 | 0 | 0 | 0 | 0 | STD5.60 |
| 2026-07-18 16:41:41 | 16 | 17.50 | 0.080000 | 41.649648 | 41.62752893 | 0 | 0 | 0 | 0 | 0 | 0 | 0 | 0 | STD5.60 |
| 2026-07-18 16:36:41 | 16 | 17.80 | 0.080000 | 41.649648 | 41.62752893 | 0 | 0 | 0 | 0 | 0 | 0 | 0 | 0 | STD5.60 |
| 2026-07-18 16:31:35 | 11 | 18.80 | 0.055000 | 41.649648 | 41.62752893 | 0 | 0 | 0 | 0 | 0 | 0 | 0 | 0 | STD5.60 |
| 2026-07-18 16:26:33 | 21 | 17.30 | 0.105000 | 41.649648 | 41.62752893 | 0 | 0 | 0 | 0 | 0 | 0 | 0 | 0 | STD5.60 |
| 2026-07-18 16:21:31 | 17 | 16.20 | 0.085000 | 41.649648 | 41.62752893 | 0 | 0 | 0 | 0 | 0 | 0 | 0 | 0 | STD5.60 |
| 2026-07-18 16:16:29 | 18 | 17.70 | 0.090000 | 41.649648 | 41.62752893 | 0 | 0 | 0 | 0 | 0 | 0 | 0 | 0 | STD5.60 |
| 2026-07-18 16:11:28 | 24 | 17.80 | 0.120000 | 41.649648 | 41.62752893 | 0 | 0 | 0 | 0 | 0 | 0 | 0 | 0 | STD5.60 |
| 2026-07-18 16:06:25 | 14 | 19.40 | 0.070000 | 41.649648 | 41.62752893 | 0 | 0 | 0 | 0 | 0 | 0 | 0 | 0 | STD5.60 |
| 2026-07-18 16:01:24 | 22 | 19.40 | 0.110000 | 41.649648 | 41.62752893 | 0 | 0 | 0 | 0 | 0 | 0 | 0 | 0 | STD5.60 |
| 2026-07-18 15:56:22 | 23 | 17.50 | 0.115000 | 41.649648 | 41.62752893 | 0 | 0 | 0 | 0 | 0 | 0 | 0 | 0 | STD5.60 |
| 2026-07-18 15:51:20 | 17 | 16.50 | 0.085000 | 41.649648 | 41.62752893 | 0 | 0 | 0 | 0 | 0 | 0 | 0 | 0 | STD5.60 |
| 2026-07-18 15:46:17 | 15 | 14.90 | 0.075000 | 41.649648 | 41.62752893 | 0 | 0 | 0 | 0 | 0 | 0 | 0 | 0 | STD5.60 |
| 2026-07-18 15:41:16 | 11 | 16.20 | 0.055000 | 41.649648 | 41.62752893 | 0 | 0 | 0 | 0 | 0 | 0 | 0 | 0 | STD5.60 |
| 2026-07-18 15:36:14 | 24 | 18.40 | 0.120000 | 41.649648 | 41.62752893 | 0 | 0 | 0 | 0 | 0 | 0 | 0 | 0 | STD5.60 |
| 2026-07-18 15:31:10 | 19 | 19.90 | 0.095000 | 41.649648 | 41.62752893 | 0 | 0 | 0 | 0 | 0 | 0 | 0 | 0 | STD5.60 |
| 2026-07-18 15:26:08 | 27 | 19.10 | 0.135000 | 41.649648 | 41.62752893 | 0 | 0 | 0 | 0 | 0 | 0 | 0 | 0 | STD5.60 |
| 2026-07-18 15:21:07 | 21 | 19.90 | 0.105000 | 41.649648 | 41.62752893 | 0 | 0 | 0 | 0 | 0 | 0 | 0 | 0 | STD5.60 |
| 2026-07-18 15:16:11 | 19 | 19.30 | 0.095000 | 41.649648 | 41.62752893 | 0 | 0 | 0 | 0 | 0 | 0 | 0 | 0 | STD5.60 |
| 2026-07-18 15:11:02 | 17 | 17.10 | 0.085000 | 41.649648 | 41.62752893 | 0 | 0 | 0 | 0 | 0 | 0 | 0 | 0 | STD5.60 |
| 2026-07-18 15:06:01 | 19 | 18.30 | 0.095000 | 41.649648 | 41.62752893 | 0 | 0 | 0 | 0 | 0 | 0 | 0 | 0 | STD5.60 |
| 2026-07-18 15:00:59 | 25 | 18.20 | 0.125000 | 41.649648 | 41.62752893 | 0 | 0 | 0 | 0 | 0 | 0 | 0 | 0 | STD5.60 |
| 2026-07-18 14:55:56 | 14 | 17.80 | 0.070000 | 41.649648 | 41.62752893 | 0 | 0 | 0 | 0 | 0 | 0 | 0 | 0 | STD5.60 |
| 2026-07-18 14:50:55 | 23 | 18.20 | 0.115000 | 41.649648 | 41.62752893 | 0 | 0 | 0 | 0 | 0 | 0 | 0 | 0 | STD5.60 |
| 2026-07-18 14:45:52 | 20 | 16.90 | 0.100000 | 41.649648 | 41.62752893 | 0 | 0 | 0 | 0 | 0 | 0 | 0 | 0 | STD5.60 |
| 2026-07-18 14:40:50 | 18 | 16.50 | 0.090000 | 41.649648 | 41.62752893 | 0 | 0 | 0 | 0 | 0 | 0 | 0 | 0 | STD5.60 |
| 2026-07-18 14:35:48 | 17 | 18.40 | 0.085000 | 41.649648 | 41.62752893 | 0 | 0 | 0 | 0 | 0 | 0 | 0 | 0 | STD5.60 |
| 2026-07-18 14:30:44 | 20 | 18.20 | 0.100000 | 41.649648 | 41.62752893 | 0 | 0 | 0 | 0 | 0 | 0 | 0 | 0 | STD5.60 |
| 2026-07-18 14:25:41 | 18 | 18.00 | 0.090000 | 41.649648 | 41.62752893 | 0 | 0 | 0 | 0 | 0 | 0 | 0 | 0 | STD5.60 |
| 2026-07-18 14:20:39 | 19 | 18.90 | 0.095000 | 41.649648 | 41.62752893 | 0 | 0 | 0 | 0 | 0 | 0 | 0 | 0 | STD5.60 |
| 2026-07-18 14:11:31 | 16 | 19.10 | 0.080000 | 41.649648 | 41.62752893 | 0 | 0 | 0 | 0 | 0 | 0 | 0 | 0 | STD5.60 |
| 2026-07-18 14:06:32 | 21 | 19.90 | 0.105000 | 41.649648 | 41.62752893 | 0 | 0 | 0 | 0 | 0 | 0 | 0 | 0 | STD5.60 |
| 2026-07-18 13:56:07 | 10 | 15.30 | 0.050000 | 41.649648 | 41.62752893 | 0 | 0 | 0 | 0 | 0 | 0 | 0 | 0 | STD5.60 |
| 2026-07-18 13:50:34 | 17 | 17.20 | 0.085000 | 41.649648 | 41.62752893 | 0 | 0 | 0 | 0 | 0 | 0 | 0 | 0 | STD5.60 |
| 2026-07-18 13:45:26 | 21 | 18.90 | 0.105000 | 41.649648 | 41.62752893 | 0 | 0 | 0 | 0 | 0 | 0 | 0 | 0 | STD5.60 |
| 2026-07-18 13:40:24 | 20 | 17.30 | 0.100000 | 41.649648 | 41.62752893 | 0 | 0 | 0 | 0 | 0 | 0 | 0 | 0 | STD5.60 |
| 2026-07-18 13:35:22 | 16 | 7.40 | 0.080000 | 41.649648 | 41.62752893 | 0 | 0 | 0 | 0 | 0 | 0 | 0 | 0 | STD5.60 |
| 2026-07-18 13:30:21 | 21 | 16.90 | 0.105000 | 41.649648 | 41.62752893 | 0 | 0 | 0 | 0 | 0 | 0 | 0 | 0 | STD5.60 |
| 2026-07-18 13:25:16 | 21 | 17.20 | 0.105000 | 41.649648 | 41.62752893 | 0 | 0 | 0 | 0 | 0 | 0 | 0 | 0 | STD5.60 |
| 2026-07-18 13:20:14 | 15 | 18.00 | 0.075000 | 41.649648 | 41.62752893 | 0 | 0 | 0 | 0 | 0 | 0 | 0 | 0 | STD5.60 |
| 2026-07-18 13:15:12 | 15 | 18.20 | 0.075000 | 41.649648 | 41.62752893 | 0 | 0 | 0 | 0 | 0 | 0 | 0 | 0 | STD5.60 |
| 2026-07-18 13:10:10 | 18 | 17.40 | 0.090000 | 41.649648 | 41.62752893 | 0 | 0 | 0 | 0 | 0 | 0 | 0 | 0 | STD5.60 |
| 2026-07-18 13:05:08 | 17 | 17.50 | 0.085000 | 41.649648 | 41.62752893 | 0 | 0 | 0 | 0 | 0 | 0 | 0 | 0 | STD5.60 |
| 2026-07-18 13:00:07 | 19 | 17.40 | 0.095000 | 41.649648 | 41.62752893 | 0 | 0 | 0 | 0 | 0 | 0 | 0 | 0 | STD5.60 |
| 2026-07-18 12:55:05 | 17 | 16.10 | 0.085000 | 41.649648 | 41.62752893 | 0 | 0 | 0 | 0 | 0 | 0 | 0 | 0 | STD5.60 |
| 2026-07-18 12:50:02 | 16 | 17.90 | 0.080000 | 41.649648 | 41.62752893 | 0 | 0 | 0 | 0 | 0 | 0 | 0 | 0 | STD5.60 |
| 2026-07-18 12:45:01 | 20 | 18.00 | 0.100000 | 41.649648 | 41.62752893 | 0 | 0 | 0 | 0 | 0 | 0 | 0 | 0 | STD5.60 |
| 2026-07-18 12:39:59 | 16 | 16.80 | 0.080000 | 41.649648 | 41.62752893 | 0 | 0 | 0 | 0 | 0 | 0 | 0 | 0 | STD5.60 |
| 2026-07-18 12:34:56 | 20 | 15.70 | 0.100000 | 41.649648 | 41.62752893 | 0 | 0 | 0 | 0 | 0 | 0 | 0 | 0 | STD5.60 |
| 2026-07-18 12:29:53 | 13 | 15.90 | 0.065000 | 41.649648 | 41.62752893 | 0 | 0 | 0 | 0 | 0 | 0 | 0 | 0 | STD5.60 |
| 2026-07-18 12:24:50 | 19 | 16.70 | 0.095000 | 41.649648 | 41.62752893 | 0 | 0 | 0 | 0 | 0 | 0 | 0 | 0 | STD5.60 |
| 2026-07-18 12:19:49 | 12 | 16.80 | 0.060000 | 41.649648 | 41.62752893 | 0 | 0 | 0 | 0 | 0 | 0 | 0 | 0 | STD5.60 |
| 2026-07-18 12:14:47 | 23 | 17.80 | 0.115000 | 41.649648 | 41.62752893 | 0 | 0 | 0 | 0 | 0 | 0 | 0 | 0 | STD5.60 |
| 2026-07-18 12:09:45 | 18 | 17.60 | 0.090000 | 41.649648 | 41.62752893 | 0 | 0 | 0 | 0 | 0 | 0 | 0 | 0 | STD5.60 |
| 2026-07-18 12:04:43 | 17 | 17.90 | 0.085000 | 41.649648 | 41.62752893 | 0 | 0 | 0 | 0 | 0 | 0 | 0 | 0 | STD5.60 |
| 2026-07-18 11:59:41 | 18 | 18.30 | 0.090000 | 41.649648 | 41.62752893 | 0 | 0 | 0 | 0 | 0 | 0 | 0 | 0 | STD5.60 |
| 2026-07-18 11:54:39 | 13 | 18.00 | 0.065000 | 41.649648 | 41.62752893 | 0 | 0 | 0 | 0 | 0 | 0 | 0 | 0 | STD5.60 |
| 2026-07-18 11:49:37 | 22 | 17.20 | 0.110000 | 41.649648 | 41.62752893 | 0 | 0 | 0 | 0 | 0 | 0 | 0 | 0 | STD5.60 |
| 2026-07-18 11:44:35 | 18 | 18.60 | 0.090000 | 41.649648 | 41.62752893 | 0 | 0 | 0 | 0 | 0 | 0 | 0 | 0 | STD5.60 |
| 2026-07-18 11:39:33 | 14 | 19.90 | 0.070000 | 41.649648 | 41.62752893 | 0 | 0 | 0 | 0 | 0 | 0 | 0 | 0 | STD5.60 |
| 2026-07-18 11:34:31 | 23 | 19.80 | 0.115000 | 41.649648 | 41.62752893 | 0 | 0 | 0 | 0 | 0 | 0 | 0 | 0 | STD5.60 |
| 2026-07-18 11:29:26 | 20 | 19.40 | 0.100000 | 41.649648 | 41.62752893 | 0 | 0 | 0 | 0 | 0 | 0 | 0 | 0 | STD5.60 |
| 2026-07-18 11:24:24 | 21 | 17.90 | 0.105000 | 41.649648 | 41.62752893 | 0 | 0 | 0 | 0 | 0 | 0 | 0 | 0 | STD5.60 |
| 2026-07-18 11:19:22 | 16 | 17.20 | 0.080000 | 41.649648 | 41.62752893 | 0 | 0 | 0 | 0 | 0 | 0 | 0 | 0 | STD5.60 |
| 2026-07-18 11:14:20 | 16 | 17.80 | 0.080000 | 41.649648 | 41.62752893 | 0 | 0 | 0 | 0 | 0 | 0 | 0 | 0 | STD5.60 |
| 2026-07-18 11:09:18 | 24 | 17.90 | 0.120000 | 41.649648 | 41.62752893 | 0 | 0 | 0 | 0 | 0 | 0 | 0 | 0 | STD5.60 |
| 2026-07-18 11:04:17 | 25 | 18.40 | 0.125000 | 41.649648 | 41.62752893 | 0 | 0 | 0 | 0 | 0 | 0 | 0 | 0 | STD5.60 |
| 2026-07-18 10:59:15 | 17 | 18.70 | 0.085000 | 41.649648 | 41.62752893 | 0 | 0 | 0 | 0 | 0 | 0 | 0 | 0 | STD5.60 |
| 2026-07-18 10:54:13 | 21 | 19.60 | 0.105000 | 41.649648 | 41.62752893 | 0 | 0 | 0 | 0 | 0 | 0 | 0 | 0 | STD5.60 |
| 2026-07-18 10:49:11 | 10 | 18.00 | 0.050000 | 41.649648 | 41.62752893 | 0 | 0 | 0 | 0 | 0 | 0 | 0 | 0 | STD5.60 |
| 2026-07-18 10:44:09 | 13 | 14.80 | 0.065000 | 41.649648 | 41.62752893 | 0 | 0 | 0 | 0 | 0 | 0 | 0 | 0 | STD5.60 |
| 2026-07-18 10:39:07 | 16 | 16.50 | 0.080000 | 41.649648 | 41.62752893 | 0 | 0 | 0 | 0 | 0 | 0 | 0 | 0 | STD5.60 |
| 2026-07-18 10:34:05 | 16 | 19.00 | 0.080000 | 41.649648 | 41.62752893 | 0 | 0 | 0 | 0 | 0 | 0 | 0 | 0 | STD5.60 |
| 2026-07-18 10:29:02 | 19 | 20.10 | 0.095000 | 41.649648 | 41.62752893 | 0 | 0 | 0 | 0 | 0 | 0 | 0 | 0 | STD5.60 |
| 2026-07-18 10:23:59 | 17 | 19.10 | 0.085000 | 41.649648 | 41.62752893 | 0 | 0 | 0 | 0 | 0 | 0 | 0 | 0 | STD5.60 |
| 2026-07-18 10:18:57 | 22 | 17.60 | 0.110000 | 41.649648 | 41.62752893 | 0 | 0 | 0 | 0 | 0 | 0 | 0 | 0 | STD5.60 |
| 2026-07-18 10:13:55 | 13 | 17.80 | 0.065000 | 41.649648 | 41.62752893 | 0 | 0 | 0 | 0 | 0 | 0 | 0 | 0 | STD5.60 |
| 2026-07-18 10:08:53 | 16 | 19.10 | 0.080000 | 41.649648 | 41.62752893 | 0 | 0 | 0 | 0 | 0 | 0 | 0 | 0 | STD5.60 |
| 2026-07-18 10:03:52 | 21 | 19.10 | 0.105000 | 41.649648 | 41.62752893 | 0 | 0 | 0 | 0 | 0 | 0 | 0 | 0 | STD5.60 |
| 2026-07-18 09:58:49 | 10 | 17.10 | 0.050000 | 41.649648 | 41.62752893 | 0 | 0 | 0 | 0 | 0 | 0 | 0 | 0 | STD5.60 |
| 2026-07-18 09:53:47 | 14 | 17.60 | 0.070000 | 41.649648 | 41.62752893 | 0 | 0 | 0 | 0 | 0 | 0 | 0 | 0 | STD5.60 |
| 2026-07-18 09:48:45 | 21 | 19.40 | 0.105000 | 41.649648 | 41.62752893 | 0 | 0 | 0 | 0 | 0 | 0 | 0 | 0 | STD5.60 |
| 2026-07-18 09:43:43 | 15 | 18.90 | 0.075000 | 41.649648 | 41.62752893 | 0 | 0 | 0 | 0 | 0 | 0 | 0 | 0 | STD5.60 |
| 2026-07-18 09:38:41 | 26 | 17.80 | 0.130000 | 41.649648 | 41.62752893 | 0 | 0 | 0 | 0 | 0 | 0 | 0 | 0 | STD5.60 |
| 2026-07-18 09:33:39 | 10 | 18.10 | 0.050000 | 41.649648 | 41.62752893 | 0 | 0 | 0 | 0 | 0 | 0 | 0 | 0 | STD5.60 |
| 2026-07-18 09:28:35 | 13 | 18.90 | 0.065000 | 41.649648 | 41.62752893 | 0 | 0 | 0 | 0 | 0 | 0 | 0 | 0 | STD5.60 |
| 2026-07-18 09:23:33 | 27 | 18.60 | 0.135000 | 41.649648 | 41.62752893 | 0 | 0 | 0 | 0 | 0 | 0 | 0 | 0 | STD5.60 |
| 2026-07-18 09:18:31 | 23 | 17.20 | 0.115000 | 41.649648 | 41.62752893 | 0 | 0 | 0 | 0 | 0 | 0 | 0 | 0 | STD5.60 |
| 2026-07-18 09:13:41 | 22 | 16.20 | 0.110000 | 41.649648 | 41.62752893 | 0 | 0 | 0 | 0 | 0 | 0 | 0 | 0 | STD5.60 |
| 2026-07-18 09:08:27 | 18 | 15.80 | 0.090000 | 41.649648 | 41.62752893 | 0 | 0 | 0 | 0 | 0 | 0 | 0 | 0 | STD5.60 |
| 2026-07-18 09:03:25 | 17 | 18.00 | 0.085000 | 41.649648 | 41.62752893 | 0 | 0 | 0 | 0 | 0 | 0 | 0 | 0 | STD5.60 |
| 2026-07-18 08:58:24 | 22 | 19.80 | 0.110000 | 41.649648 | 41.62752893 | 0 | 0 | 0 | 0 | 0 | 0 | 0 | 0 | STD5.60 |
| 2026-07-18 08:53:22 | 12 | 17.70 | 0.060000 | 41.649648 | 41.62752893 | 0 | 0 | 0 | 0 | 0 | 0 | 0 | 0 | STD5.60 |
| 2026-07-18 08:48:20 | 15 | 17.30 | 0.075000 | 41.649648 | 41.62752893 | 0 | 0 | 0 | 0 | 0 | 0 | 0 | 0 | STD5.60 |
| 2026-07-18 08:43:18 | 12 | 16.80 | 0.060000 | 41.649648 | 41.62752893 | 0 | 0 | 0 | 0 | 0 | 0 | 0 | 0 | STD5.60 |
| 2026-07-18 08:38:16 | 19 | 18.20 | 0.095000 | 41.649648 | 41.62752893 | 0 | 0 | 0 | 0 | 0 | 0 | 0 | 0 | STD5.60 |
| 2026-07-18 08:33:14 | 17 | 19.90 | 0.085000 | 41.649648 | 41.62752893 | 0 | 0 | 0 | 0 | 0 | 0 | 0 | 0 | STD5.60 |
| 2026-07-18 08:28:09 | 19 | 18.80 | 0.095000 | 41.649648 | 41.62752893 | 0 | 0 | 0 | 0 | 0 | 0 | 0 | 0 | STD5.60 |
| 2026-07-18 08:23:07 | 11 | 20.50 | 0.055000 | 41.649648 | 41.62752893 | 0 | 0 | 0 | 0 | 0 | 0 | 0 | 0 | STD5.60 |
| 2026-07-18 08:18:05 | 29 | 21.00 | 0.145000 | 41.649648 | 41.62752893 | 0 | 0 | 0 | 0 | 0 | 0 | 0 | 0 | STD5.60 |
| 2026-07-18 08:13:03 | 29 | 16.50 | 0.145000 | 41.649648 | 41.62752893 | 0 | 0 | 0 | 0 | 0 | 0 | 0 | 0 | STD5.60 |
| 2026-07-18 08:08:01 | 19 | 15.00 | 0.095000 | 41.649648 | 41.62752893 | 0 | 0 | 0 | 0 | 0 | 0 | 0 | 0 | STD5.60 |
| 2026-07-18 08:02:59 | 21 | 17.20 | 0.105000 | 41.649648 | 41.62752893 | 0 | 0 | 0 | 0 | 0 | 0 | 0 | 0 | STD5.60 |
| 2026-07-18 07:57:57 | 16 | 18.70 | 0.080000 | 41.649648 | 41.62752893 | 0 | 0 | 0 | 0 | 0 | 0 | 0 | 0 | STD5.60 |
| 2026-07-18 07:52:55 | 17 | 19.40 | 0.085000 | 41.649648 | 41.62752893 | 0 | 0 | 0 | 0 | 0 | 0 | 0 | 0 | STD5.60 |
| 2026-07-18 07:47:53 | 21 | 18.40 | 0.105000 | 41.649648 | 41.62752893 | 0 | 0 | 0 | 0 | 0 | 0 | 0 | 0 | STD5.60 |
| 2026-07-18 07:42:51 | 10 | 19.60 | 0.050000 | 41.649648 | 41.62752893 | 0 | 0 | 0 | 0 | 0 | 0 | 0 | 0 | STD5.60 |
| 2026-07-18 07:37:49 | 24 | 19.10 | 0.120000 | 41.649648 | 41.62752893 | 0 | 0 | 0 | 0 | 0 | 0 | 0 | 0 | STD5.60 |
| 2026-07-18 07:32:47 | 18 | 16.70 | 0.090000 | 41.649648 | 41.62752893 | 0 | 0 | 0 | 0 | 0 | 0 | 0 | 0 | STD5.60 |
| 2026-07-18 07:27:43 | 17 | 19.20 | 0.085000 | 41.649648 | 41.62752893 | 0 | 0 | 0 | 0 | 0 | 0 | 0 | 0 | STD5.60 |
| 2026-07-18 07:22:41 | 19 | 20.30 | 0.095000 | 41.649648 | 41.62752893 | 0 | 0 | 0 | 0 | 0 | 0 | 0 | 0 | STD5.60 |
| 2026-07-18 07:17:40 | 18 | 17.30 | 0.090000 | 41.649648 | 41.62752893 | 0 | 0 | 0 | 0 | 0 | 0 | 0 | 0 | STD5.60 |
| 2026-07-18 07:12:37 | 17 | 14.80 | 0.085000 | 41.649648 | 41.62752893 | 0 | 0 | 0 | 0 | 0 | 0 | 0 | 0 | STD5.60 |
| 2026-07-18 07:07:36 | 12 | 14.10 | 0.060000 | 41.649648 | 41.62752893 | 0 | 0 | 0 | 0 | 0 | 0 | 0 | 0 | STD5.60 |
| 2026-07-18 07:02:34 | 13 | 16.60 | 0.065000 | 41.649648 | 41.62752893 | 0 | 0 | 0 | 0 | 0 | 0 | 0 | 0 | STD5.60 |
| 2026-07-18 06:57:32 | 16 | 18.90 | 0.080000 | 41.649648 | 41.62752893 | 0 | 0 | 0 | 0 | 0 | 0 | 0 | 0 | STD5.60 |
| 2026-07-18 06:52:30 | 29 | 17.00 | 0.145000 | 41.649648 | 41.62752893 | 0 | 0 | 0 | 0 | 0 | 0 | 0 | 0 | STD5.60 |
| 2026-07-18 06:47:28 | 19 | 17.40 | 0.095000 | 41.649648 | 41.62752893 | 0 | 0 | 0 | 0 | 0 | 0 | 0 | 0 | STD5.60 |
| 2026-07-18 06:42:26 | 24 | 19.70 | 0.120000 | 41.649648 | 41.62752893 | 0 | 0 | 0 | 0 | 0 | 0 | 0 | 0 | STD5.60 |
| 2026-07-18 06:37:24 | 20 | 17.70 | 0.100000 | 41.649648 | 41.62752893 | 0 | 0 | 0 | 0 | 0 | 0 | 0 | 0 | STD5.60 |
| 2026-07-18 06:32:22 | 21 | 17.10 | 0.105000 | 41.649648 | 41.62752893 | 0 | 0 | 0 | 0 | 0 | 0 | 0 | 0 | STD5.60 |
| 2026-07-18 06:27:19 | 16 | 18.30 | 0.080000 | 41.649648 | 41.62752893 | 0 | 0 | 0 | 0 | 0 | 0 | 0 | 0 | STD5.60 |
| 2026-07-18 06:22:16 | 21 | 17.60 | 0.105000 | 41.649648 | 41.62752893 | 0 | 0 | 0 | 0 | 0 | 0 | 0 | 0 | STD5.60 |
| 2026-07-18 06:17:15 | 8 | 16.10 | 0.040000 | 41.649648 | 41.62752893 | 0 | 0 | 0 | 0 | 0 | 0 | 0 | 0 | STD5.60 |
| 2026-07-18 06:12:13 | 10 | 15.70 | 0.050000 | 41.649648 | 41.62752893 | 0 | 0 | 0 | 0 | 0 | 0 | 0 | 0 | STD5.60 |
| 2026-07-18 06:07:11 | 8 | 17.40 | 0.040000 | 41.649648 | 41.62752893 | 0 | 0 | 0 | 0 | 0 | 0 | 0 | 0 | STD5.60 |
| 2026-07-18 06:02:09 | 9 | 19.10 | 0.045000 | 41.649648 | 41.62752893 | 0 | 0 | 0 | 0 | 0 | 0 | 0 | 0 | STD5.60 |
| 2026-07-18 05:57:07 | 16 | 17.90 | 0.080000 | 41.649648 | 41.62752893 | 0 | 0 | 0 | 0 | 0 | 0 | 0 | 0 | STD5.60 |
| 2026-07-18 05:52:05 | 16 | 18.80 | 0.080000 | 41.649648 | 41.62752893 | 0 | 0 | 0 | 0 | 0 | 0 | 0 | 0 | STD5.60 |
| 2026-07-18 05:47:03 | 22 | 20.60 | 0.110000 | 41.649648 | 41.62752893 | 0 | 0 | 0 | 0 | 0 | 0 | 0 | 0 | STD5.60 |
| 2026-07-18 05:42:01 | 17 | 18.30 | 0.085000 | 41.649648 | 41.62752893 | 0 | 0 | 0 | 0 | 0 | 0 | 0 | 0 | STD5.60 |
| 2026-07-18 05:36:59 | 14 | 17.30 | 0.070000 | 41.649648 | 41.62752893 | 0 | 0 | 0 | 0 | 0 | 0 | 0 | 0 | STD5.60 |
| 2026-07-18 05:31:57 | 15 | 18.30 | 0.075000 | 41.649648 | 41.62752893 | 0 | 0 | 0 | 0 | 0 | 0 | 0 | 0 | STD5.60 |
| 2026-07-18 05:26:53 | 20 | 19.20 | 0.100000 | 41.649648 | 41.62752893 | 0 | 0 | 0 | 0 | 0 | 0 | 0 | 0 | STD5.60 |
| 2026-07-18 05:21:51 | 18 | 18.00 | 0.090000 | 41.649648 | 41.62752893 | 0 | 0 | 0 | 0 | 0 | 0 | 0 | 0 | STD5.60 |
| 2026-07-18 05:16:50 | 19 | 17.30 | 0.095000 | 41.649648 | 41.62752893 | 0 | 0 | 0 | 0 | 0 | 0 | 0 | 0 | STD5.60 |
| 2026-07-18 05:11:48 | 11 | 17.50 | 0.055000 | 41.649648 | 41.62752893 | 0 | 0 | 0 | 0 | 0 | 0 | 0 | 0 | STD5.60 |
| 2026-07-18 05:06:46 | 20 | 17.40 | 0.100000 | 41.649648 | 41.62752893 | 0 | 0 | 0 | 0 | 0 | 0 | 0 | 0 | STD5.60 |
| 2026-07-18 05:01:44 | 23 | 18.00 | 0.115000 | 41.649648 | 41.62752893 | 0 | 0 | 0 | 0 | 0 | 0 | 0 | 0 | STD5.60 |
| 2026-07-18 04:56:42 | 18 | 19.00 | 0.090000 | 41.649648 | 41.62752893 | 0 | 0 | 0 | 0 | 0 | 0 | 0 | 0 | STD5.60 |
| 2026-07-18 04:51:40 | 16 | 18.40 | 0.080000 | 41.649648 | 41.62752893 | 0 | 0 | 0 | 0 | 0 | 0 | 0 | 0 | STD5.60 |
| 2026-07-18 04:46:38 | 18 | 19.40 | 0.090000 | 41.649648 | 41.62752893 | 0 | 0 | 0 | 0 | 0 | 0 | 0 | 0 | STD5.60 |
| 2026-07-18 04:41:36 | 19 | 19.60 | 0.095000 | 41.649648 | 41.62752893 | 0 | 0 | 0 | 0 | 0 | 0 | 0 | 0 | STD5.60 |
| 2026-07-18 04:36:34 | 20 | 17.70 | 0.100000 | 41.649648 | 41.62752893 | 0 | 0 | 0 | 0 | 0 | 0 | 0 | 0 | STD5.60 |
| 2026-07-18 04:31:32 | 16 | 19.00 | 0.080000 | 41.649648 | 41.62752893 | 0 | 0 | 0 | 0 | 0 | 0 | 0 | 0 | STD5.60 |
| 2026-07-18 04:26:27 | 22 | 18.80 | 0.110000 | 41.649648 | 41.62752893 | 0 | 0 | 0 | 0 | 0 | 0 | 0 | 0 | STD5.60 |
| 2026-07-18 04:21:25 | 19 | 16.20 | 0.095000 | 41.649648 | 41.62752893 | 0 | 0 | 0 | 0 | 0 | 0 | 0 | 0 | STD5.60 |
| 2026-07-18 04:16:24 | 14 | 17.50 | 0.070000 | 41.649648 | 41.62752893 | 0 | 0 | 0 | 0 | 0 | 0 | 0 | 0 | STD5.60 |
| 2026-07-18 04:11:22 | 14 | 20.00 | 0.070000 | 41.649648 | 41.62752893 | 0 | 0 | 0 | 0 | 0 | 0 | 0 | 0 | STD5.60 |
| 2026-07-18 04:06:19 | 22 | 20.10 | 0.110000 | 41.649648 | 41.62752893 | 0 | 0 | 0 | 0 | 0 | 0 | 0 | 0 | STD5.60 |
| 2026-07-18 04:01:18 | 12 | 17.80 | 0.060000 | 41.649648 | 41.62752893 | 0 | 0 | 0 | 0 | 0 | 0 | 0 | 0 | STD5.60 |
| 2026-07-18 03:56:16 | 14 | 17.30 | 0.070000 | 41.649648 | 41.62752893 | 0 | 0 | 0 | 0 | 0 | 0 | 0 | 0 | STD5.60 |
| 2026-07-18 03:51:13 | 24 | 17.60 | 0.120000 | 41.649648 | 41.62752893 | 0 | 0 | 0 | 0 | 0 | 0 | 0 | 0 | STD5.60 |
| 2026-07-18 03:46:12 | 16 | 15.40 | 0.080000 | 41.649648 | 41.62752893 | 0 | 0 | 0 | 0 | 0 | 0 | 0 | 0 | STD5.60 |
| 2026-07-18 03:41:10 | 13 | 18.10 | 0.065000 | 41.649648 | 41.62752893 | 0 | 0 | 0 | 0 | 0 | 0 | 0 | 0 | STD5.60 |
| 2026-07-18 03:36:08 | 13 | 20.60 | 0.065000 | 41.649648 | 41.62752893 | 0 | 0 | 0 | 0 | 0 | 0 | 0 | 0 | STD5.60 |
| 2026-07-18 03:31:07 | 20 | 19.70 | 0.100000 | 41.649648 | 41.62752893 | 0 | 0 | 0 | 0 | 0 | 0 | 0 | 0 | STD5.60 |
| 2026-07-18 03:26:03 | 31 | 20.10 | 0.155000 | 41.649648 | 41.62752893 | 0 | 0 | 0 | 0 | 0 | 0 | 0 | 0 | STD5.60 |
| 2026-07-18 03:21:01 | 16 | 19.10 | 0.080000 | 41.649648 | 41.62752893 | 0 | 0 | 0 | 0 | 0 | 0 | 0 | 0 | STD5.60 |
| 2026-07-18 03:15:59 | 22 | 17.70 | 0.110000 | 41.649648 | 41.62752893 | 0 | 0 | 0 | 0 | 0 | 0 | 0 | 0 | STD5.60 |
| 2026-07-18 03:10:57 | 12 | 17.30 | 0.060000 | 41.649648 | 41.62752893 | 0 | 0 | 0 | 0 | 0 | 0 | 0 | 0 | STD5.60 |
| 2026-07-18 03:05:55 | 13 | 18.60 | 0.065000 | 41.649648 | 41.62752893 | 0 | 0 | 0 | 0 | 0 | 0 | 0 | 0 | STD5.60 |
| 2026-07-18 03:00:53 | 16 | 17.90 | 0.080000 | 41.649648 | 41.62752893 | 0 | 0 | 0 | 0 | 0 | 0 | 0 | 0 | STD5.60 |
| 2026-07-18 02:55:51 | 13 | 16.90 | 0.065000 | 41.649648 | 41.62752893 | 0 | 0 | 0 | 0 | 0 | 0 | 0 | 0 | STD5.60 |
| 2026-07-18 02:50:49 | 21 | 19.20 | 0.105000 | 41.649648 | 41.62752893 | 0 | 0 | 0 | 0 | 0 | 0 | 0 | 0 | STD5.60 |
| 2026-07-18 02:45:47 | 21 | 18.10 | 0.105000 | 41.649648 | 41.62752893 | 0 | 0 | 0 | 0 | 0 | 0 | 0 | 0 | STD5.60 |
| 2026-07-18 02:40:45 | 14 | 17.20 | 0.070000 | 41.649648 | 41.62752893 | 0 | 0 | 0 | 0 | 0 | 0 | 0 | 0 | STD5.60 |
| 2026-07-18 02:35:43 | 20 | 18.60 | 0.100000 | 41.649648 | 41.62752893 | 0 | 0 | 0 | 0 | 0 | 0 | 0 | 0 | STD5.60 |
| 2026-07-18 02:30:41 | 21 | 18.50 | 0.105000 | 41.649648 | 41.62752893 | 0 | 0 | 0 | 0 | 0 | 0 | 0 | 0 | STD5.60 |
| 2026-07-18 02:25:37 | 18 | 18.60 | 0.090000 | 41.649648 | 41.62752893 | 0 | 0 | 0 | 0 | 0 | 0 | 0 | 0 | STD5.60 |
| 2026-07-18 02:20:35 | 10 | 18.10 | 0.050000 | 41.649648 | 41.62752893 | 0 | 0 | 0 | 0 | 0 | 0 | 0 | 0 | STD5.60 |
| 2026-07-18 02:15:33 | 15 | 17.30 | 0.075000 | 41.649648 | 41.62752893 | 0 | 0 | 0 | 0 | 0 | 0 | 0 | 0 | STD5.60 |
| 2026-07-18 02:10:31 | 13 | 18.20 | 0.065000 | 41.649648 | 41.62752893 | 0 | 0 | 0 | 0 | 0 | 0 | 0 | 0 | STD5.60 |
| 2026-07-18 02:05:30 | 20 | 17.70 | 0.100000 | 41.649648 | 41.62752893 | 0 | 0 | 0 | 0 | 0 | 0 | 0 | 0 | STD5.60 |
| 2026-07-18 02:00:27 | 18 | 17.40 | 0.090000 | 41.649648 | 41.62752893 | 0 | 0 | 0 | 0 | 0 | 0 | 0 | 0 | STD5.60 |
| 2026-07-18 01:55:25 | 18 | 18.10 | 0.090000 | 41.649648 | 41.62752893 | 0 | 0 | 0 | 0 | 0 | 0 | 0 | 0 | STD5.60 |
| 2026-07-18 01:50:23 | 24 | 16.30 | 0.120000 | 41.649648 | 41.62752893 | 0 | 0 | 0 | 0 | 0 | 0 | 0 | 0 | STD5.60 |
| 2026-07-18 01:45:22 | 16 | 15.20 | 0.080000 | 41.649648 | 41.62752893 | 0 | 0 | 0 | 0 | 0 | 0 | 0 | 0 | STD5.60 |
| 2026-07-18 01:40:20 | 14 | 15.80 | 0.070000 | 41.649648 | 41.62752893 | 0 | 0 | 0 | 0 | 0 | 0 | 0 | 0 | STD5.60 |
| 2026-07-18 01:35:18 | 16 | 18.40 | 0.080000 | 41.649648 | 41.62752893 | 0 | 0 | 0 | 0 | 0 | 0 | 0 | 0 | STD5.60 |
| 2026-07-18 01:30:16 | 18 | 19.60 | 0.090000 | 41.649648 | 41.62752893 | 0 | 0 | 0 | 0 | 0 | 0 | 0 | 0 | STD5.60 |
| 2026-07-18 01:25:11 | 24 | 17.40 | 0.120000 | 41.649648 | 41.62752893 | 0 | 0 | 0 | 0 | 0 | 0 | 0 | 0 | STD5.60 |
| 2026-07-18 01:20:09 | 19 | 15.10 | 0.095000 | 41.649648 | 41.62752893 | 0 | 0 | 0 | 0 | 0 | 0 | 0 | 0 | STD5.60 |
| 2026-07-18 01:15:07 | 8 | 17.70 | 0.040000 | 41.649648 | 41.62752893 | 0 | 0 | 0 | 0 | 0 | 0 | 0 | 0 | STD5.60 |
| 2026-07-18 01:10:05 | 11 | 18.90 | 0.055000 | 41.649648 | 41.62752893 | 0 | 0 | 0 | 0 | 0 | 0 | 0 | 0 | STD5.60 |
| 2026-07-18 01:05:03 | 17 | 17.20 | 0.085000 | 41.649648 | 41.62752893 | 0 | 0 | 0 | 0 | 0 | 0 | 0 | 0 | STD5.60 |
| 2026-07-18 01:00:17 | 11 | 17.90 | 0.055000 | 41.649648 | 41.62752893 | 0 | 0 | 0 | 0 | 0 | 0 | 0 | 0 | STD5.60 |
| 2026-07-18 00:54:59 | 19 | 16.50 | 0.095000 | 41.649648 | 41.62752893 | 0 | 0 | 0 | 0 | 0 | 0 | 0 | 0 | STD5.60 |
| 2026-07-18 00:49:57 | 20 | 17.20 | 0.100000 | 41.649648 | 41.62752893 | 0 | 0 | 0 | 0 | 0 | 0 | 0 | 0 | STD5.60 |
| 2026-07-18 00:44:55 | 26 | 20.10 | 0.130000 | 41.649648 | 41.62752893 | 0 | 0 | 0 | 0 | 0 | 0 | 0 | 0 | STD5.60 |
| 2026-07-18 00:39:53 | 13 | 19.00 | 0.065000 | 41.649648 | 41.62752893 | 0 | 0 | 0 | 0 | 0 | 0 | 0 | 0 | STD5.60 |
| 2026-07-18 00:34:51 | 20 | 16.80 | 0.100000 | 41.649648 | 41.62752893 | 0 | 0 | 0 | 0 | 0 | 0 | 0 | 0 | STD5.60 |
| 2026-07-18 00:29:49 | 17 | 16.20 | 0.085000 | 41.649648 | 41.62752893 | 0 | 0 | 0 | 0 | 0 | 0 | 0 | 0 | STD5.60 |
| 2026-07-18 00:24:45 | 17 | 17.00 | 0.085000 | 41.649648 | 41.62752893 | 0 | 0 | 0 | 0 | 0 | 0 | 0 | 0 | STD5.60 |
| 2026-07-18 00:19:43 | 13 | 17.30 | 0.065000 | 41.649648 | 41.62752893 | 0 | 0 | 0 | 0 | 0 | 0 | 0 | 0 | STD5.60 |
| 2026-07-18 00:14:40 | 19 | 16.90 | 0.095000 | 41.649648 | 41.62752893 | 0 | 0 | 0 | 0 | 0 | 0 | 0 | 0 | STD5.60 |
| 2026-07-18 00:09:38 | 12 | 15.50 | 0.060000 | 41.649648 | 41.62752893 | 0 | 0 | 0 | 0 | 0 | 0 | 0 | 0 | STD5.60 |
| 2026-07-18 00:04:36 | 12 | 14.80 | 0.060000 | 41.649648 | 41.62752893 | 0 | 0 | 0 | 0 | 0 | 0 | 0 | 0 | STD5.60 |
| 2026-07-17 23:59:34 | 18 | 17.40 | 0.090000 | 41.649648 | 41.62752893 | 0 | 0 | 0 | 0 | 0 | 0 | 0 | 0 | STD5.60 |
| 2026-07-17 23:54:32 | 14 | 18.40 | 0.070000 | 41.649648 | 41.62752893 | 0 | 0 | 0 | 0 | 0 | 0 | 0 | 0 | STD5.60 |
| 2026-07-17 23:49:30 | 21 | 19.40 | 0.105000 | 41.649648 | 41.62752893 | 0 | 0 | 0 | 0 | 0 | 0 | 0 | 0 | STD5.60 |
| 2026-07-17 23:44:28 | 20 | 19.80 | 0.100000 | 41.649648 | 41.62752893 | 0 | 0 | 0 | 0 | 0 | 0 | 0 | 0 | STD5.60 |
| 2026-07-17 23:39:26 | 23 | 17.90 | 0.115000 | 41.649648 | 41.62752893 | 0 | 0 | 0 | 0 | 0 | 0 | 0 | 0 | STD5.60 |
| 2026-07-17 23:34:24 | 12 | 19.40 | 0.060000 | 41.649648 | 41.62752893 | 0 | 0 | 0 | 0 | 0 | 0 | 0 | 0 | STD5.60 |
| 2026-07-17 23:29:22 | 25 | 18.10 | 0.125000 | 41.649648 | 41.62752893 | 0 | 0 | 0 | 0 | 0 | 0 | 0 | 0 | STD5.60 |
| 2026-07-17 23:24:18 | 19 | 16.60 | 0.095000 | 41.649648 | 41.62752893 | 0 | 0 | 0 | 0 | 0 | 0 | 0 | 0 | STD5.60 |
| 2026-07-17 23:19:16 | 12 | 17.90 | 0.060000 | 41.649648 | 41.62752893 | 0 | 0 | 0 | 0 | 0 | 0 | 0 | 0 | STD5.60 |
| 2026-07-17 23:14:14 | 22 | 19.00 | 0.110000 | 41.649648 | 41.62752893 | 0 | 0 | 0 | 0 | 0 | 0 | 0 | 0 | STD5.60 |
| 2026-07-17 23:09:13 | 26 | 18.60 | 0.130000 | 41.649648 | 41.62752893 | 0 | 0 | 0 | 0 | 0 | 0 | 0 | 0 | STD5.60 |
| 2026-07-17 23:04:10 | 18 | 17.70 | 0.090000 | 41.649648 | 41.62752893 | 0 | 0 | 0 | 0 | 0 | 0 | 0 | 0 | STD5.60 |
| 2026-07-17 22:59:08 | 12 | 17.00 | 0.060000 | 41.649648 | 41.62752893 | 0 | 0 | 0 | 0 | 0 | 0 | 0 | 0 | STD5.60 |
| 2026-07-17 22:54:07 | 16 | 16.30 | 0.080000 | 41.649648 | 41.62752893 | 0 | 0 | 0 | 0 | 0 | 0 | 0 | 0 | STD5.60 |
| 2026-07-17 22:49:05 | 14 | 17.80 | 0.070000 | 41.649648 | 41.62752893 | 0 | 0 | 0 | 0 | 0 | 0 | 0 | 0 | STD5.60 |
| 2026-07-17 22:44:05 | 16 | 21.10 | 0.080000 | 41.649648 | 41.62752893 | 0 | 0 | 0 | 0 | 0 | 0 | 0 | 0 | STD5.60 |
| 2026-07-17 22:39:01 | 20 | 19.20 | 0.100000 | 41.649648 | 41.62752893 | 0 | 0 | 0 | 0 | 0 | 0 | 0 | 0 | STD5.60 |
| 2026-07-17 22:33:58 | 10 | 17.20 | 0.050000 | 41.649648 | 41.62752893 | 0 | 0 | 0 | 0 | 0 | 0 | 0 | 0 | STD5.60 |
| 2026-07-17 22:28:56 | 13 | 17.70 | 0.065000 | 41.649648 | 41.62752893 | 0 | 0 | 0 | 0 | 0 | 0 | 0 | 0 | STD5.60 |
| 2026-07-17 22:23:52 | 16 | 16.30 | 0.080000 | 41.649648 | 41.62752893 | 0 | 0 | 0 | 0 | 0 | 0 | 0 | 0 | STD5.60 |
| 2026-07-17 22:18:50 | 11 | 17.60 | 0.055000 | 41.649648 | 41.62752893 | 0 | 0 | 0 | 0 | 0 | 0 | 0 | 0 | STD5.60 |
| 2026-07-17 22:13:48 | 22 | 18.10 | 0.110000 | 41.649648 | 41.62752893 | 0 | 0 | 0 | 0 | 0 | 0 | 0 | 0 | STD5.60 |
| 2026-07-17 22:08:46 | 18 | 17.80 | 0.090000 | 41.649648 | 41.62752893 | 0 | 0 | 0 | 0 | 0 | 0 | 0 | 0 | STD5.60 |
| 2026-07-17 22:03:44 | 17 | 18.30 | 0.085000 | 41.649648 | 41.62752893 | 0 | 0 | 0 | 0 | 0 | 0 | 0 | 0 | STD5.60 |
| 2026-07-17 21:58:42 | 14 | 17.40 | 0.070000 | 41.649648 | 41.62752893 | 0 | 0 | 0 | 0 | 0 | 0 | 0 | 0 | STD5.60 |
| 2026-07-17 21:53:40 | 11 | 17.90 | 0.055000 | 41.649648 | 41.62752893 | 0 | 0 | 0 | 0 | 0 | 0 | 0 | 0 | STD5.60 |
| 2026-07-17 21:48:38 | 14 | 17.30 | 0.070000 | 41.649648 | 41.62752893 | 0 | 0 | 0 | 0 | 0 | 0 | 0 | 0 | STD5.60 |
| 2026-07-17 21:43:36 | 14 | 16.90 | 0.070000 | 41.649648 | 41.62752893 | 0 | 0 | 0 | 0 | 0 | 0 | 0 | 0 | STD5.60 |
| 2026-07-17 21:38:34 | 16 | 19.60 | 0.080000 | 41.649648 | 41.62752893 | 0 | 0 | 0 | 0 | 0 | 0 | 0 | 0 | STD5.60 |
| 2026-07-17 21:33:32 | 21 | 20.70 | 0.105000 | 41.649648 | 41.62752893 | 0 | 0 | 0 | 0 | 0 | 0 | 0 | 0 | STD5.60 |
| 2026-07-17 21:28:30 | 18 | 19.60 | 0.090000 | 41.649648 | 41.62752893 | 0 | 0 | 0 | 0 | 0 | 0 | 0 | 0 | STD5.60 |
| 2026-07-17 21:23:27 | 14 | 18.60 | 0.070000 | 41.649648 | 41.62752893 | 0 | 0 | 0 | 0 | 0 | 0 | 0 | 0 | STD5.60 |
| 2026-07-17 21:18:25 | 14 | 18.60 | 0.070000 | 41.649648 | 41.62752893 | 0 | 0 | 0 | 0 | 0 | 0 | 0 | 0 | STD5.60 |
| 2026-07-17 21:13:23 | 13 | 19.30 | 0.065000 | 41.649648 | 41.62752893 | 0 | 0 | 0 | 0 | 0 | 0 | 0 | 0 | STD5.60 |
| 2026-07-17 21:08:21 | 14 | 20.10 | 0.070000 | 41.649648 | 41.62752893 | 0 | 0 | 0 | 0 | 0 | 0 | 0 | 0 | STD5.60 |
| 2026-07-17 21:03:19 | 17 | 20.40 | 0.085000 | 41.649648 | 41.62752893 | 0 | 0 | 0 | 0 | 0 | 0 | 0 | 0 | STD5.60 |
| 2026-07-17 20:58:20 | 24 | 17.60 | 0.120000 | 41.649648 | 41.62752893 | 0 | 0 | 0 | 0 | 0 | 0 | 0 | 0 | STD5.60 |
| 2026-07-17 20:53:16 | 17 | 16.90 | 0.085000 | 41.649648 | 41.62752893 | 0 | 0 | 0 | 0 | 0 | 0 | 0 | 0 | STD5.60 |
| 2026-07-17 20:48:13 | 25 | 18.20 | 0.125000 | 41.649648 | 41.62752893 | 0 | 0 | 0 | 0 | 0 | 0 | 0 | 0 | STD5.60 |
| 2026-07-17 20:43:11 | 21 | 17.00 | 0.105000 | 41.649648 | 41.62752893 | 0 | 0 | 0 | 0 | 0 | 0 | 0 | 0 | STD5.60 |
| 2026-07-17 20:38:09 | 15 | 18.40 | 0.075000 | 41.649648 | 41.62752893 | 0 | 0 | 0 | 0 | 0 | 0 | 0 | 0 | STD5.60 |
| 2026-07-17 20:33:08 | 24 | 18.30 | 0.120000 | 41.649648 | 41.62752893 | 0 | 0 | 0 | 0 | 0 | 0 | 0 | 0 | STD5.60 |
| 2026-07-17 20:28:06 | 12 | 15.50 | 0.060000 | 41.649648 | 41.62752893 | 0 | 0 | 0 | 0 | 0 | 0 | 0 | 0 | STD5.60 |
| 2026-07-17 20:23:02 | 20 | 17.00 | 0.100000 | 41.649648 | 41.62752893 | 0 | 0 | 0 | 0 | 0 | 0 | 0 | 0 | STD5.60 |